^^
Station Historical Data
Daily Summary for January 3, 2018 Units:  English    Metric   Both
« Previous Day
Next Day »
Daily Weekly Monthly Yearly Custom
  High: Low: Average:
Temperature: TemperatureF °F 67.6 °F 80.7 °F
Dew Point: DewpointF °F 4.6 °F 16.6 °F
Humidity: Humidity% 5% 10%
Wind Speed: WindSpeedMPHmph 0.0mph 3.5mph
Wind Gust: WindSpeedGustMPHmph - -
Wind- - ESE
Pressure: PressureIn in 30.10 in -
Precipitation: 0.00 in    
Historical Graphs
 
 
Tabular Data for January 3, 2018
Time Temperature Dew Point Pressure Wind Wind Speed Wind Gust Humidity Rainfall Rate (Hourly) solar Conditions
TemperatureF °F DewpointF °F PressureIn in Calm     Humidity% HourlyPrecipIn in SolarRadiationWatts/m^2 W/m2 Conditions
00:03 75.0 °F 20.8 °F 30.17 in Calm   4.0 mph 13% 0.00 in 0.0 W/m2
00:08 74.8 °F 20.7 °F 30.17 in ENE 0.9 mph 3.0 mph 13% 0.00 in 0.0 W/m2
00:13 74.8 °F 24.1 °F 30.17 in ENE 0.9 mph 1.0 mph 15% 0.00 in 0.0 W/m2
00:18 74.5 °F 22.1 °F 30.17 in Calm   1.0 mph 14% 0.00 in 0.0 W/m2
00:29 74.1 °F 23.5 °F 30.16 in Calm   1.0 mph 15% 0.00 in 0.0 W/m2
00:34 73.8 °F 23.2 °F 30.16 in NNE 2.9 mph 4.0 mph 15% 0.00 in 0.0 W/m2
00:39 73.2 °F 21.2 °F 30.16 in SE 0.9 mph 5.0 mph 14% 0.00 in 0.0 W/m2
00:44 73.2 °F 21.2 °F 30.16 in East 0.9 mph 4.0 mph 14% 0.00 in 0.0 W/m2
00:49 73.6 °F 21.4 °F 30.16 in SE 2.0 mph 7.0 mph 14% 0.00 in 0.0 W/m2
00:54 73.8 °F 21.6 °F 30.16 in SE 0.9 mph 6.0 mph 14% 0.00 in 0.0 W/m2
00:59 73.9 °F 21.7 °F 30.16 in SE 4.0 mph 8.0 mph 14% 0.00 in 0.0 W/m2
01:02 73.9 °F 21.7 °F 30.16 in East 2.9 mph 7.0 mph 14% 0.00 in 0.0 W/m2
01:07 73.9 °F 21.7 °F 30.16 in ESE 4.0 mph 5.0 mph 14% 0.00 in 0.0 W/m2
01:13 73.9 °F 19.9 °F 30.16 in NE 0.9 mph 4.0 mph 13% 0.00 in 0.0 W/m2
01:18 73.8 °F 21.6 °F 30.16 in SE 2.0 mph 3.0 mph 14% 0.00 in 0.0 W/m2
01:23 73.6 °F 21.4 °F 30.16 in Calm   2.0 mph 14% 0.00 in 0.0 W/m2
01:28 73.4 °F 21.4 °F 30.16 in Calm   2.0 mph 14% 0.00 in 0.0 W/m2
01:31 73.2 °F 21.2 °F 30.16 in Calm   3.0 mph 14% 0.00 in 0.0 W/m2
01:36 72.9 °F 20.8 °F 30.16 in Calm   1.0 mph 14% 0.00 in 0.0 W/m2
01:46 72.3 °F 18.7 °F 30.16 in SE 0.9 mph 4.0 mph 13% 0.00 in 0.0 W/m2
01:51 72.1 °F 18.5 °F 30.16 in Calm   1.0 mph 13% 0.00 in 0.0 W/m2
02:00 72.1 °F 16.7 °F 30.16 in SE 2.9 mph 5.0 mph 12% 0.00 in 0.0 W/m2
02:09 72.3 °F 16.9 °F 30.15 in SSE 4.9 mph 11.0 mph 12% 0.00 in 0.0 W/m2
02:14 72.5 °F 17.1 °F 30.15 in SE 10.1 mph 17.0 mph 12% 0.00 in 0.0 W/m2
02:25 72.7 °F 17.1 °F 30.15 in SE 4.0 mph 11.0 mph 12% 0.00 in 0.0 W/m2
02:27 72.7 °F 17.1 °F 30.15 in ENE 2.9 mph 13.0 mph 12% 0.00 in 0.0 W/m2
02:33 72.7 °F 17.1 °F 30.15 in SSE 2.9 mph 8.0 mph 12% 0.00 in 0.0 W/m2
02:44 72.7 °F 15.1 °F 30.15 in South 6.9 mph 13.0 mph 11% 0.00 in 0.0 W/m2
02:49 72.7 °F 15.1 °F 30.14 in SE 4.9 mph 11.0 mph 11% 0.00 in 0.0 W/m2
02:54 72.9 °F 15.3 °F 30.14 in SE 8.1 mph 14.0 mph 11% 0.00 in 0.0 W/m2
03:00 72.9 °F 15.3 °F 30.15 in NNE 2.9 mph 14.0 mph 11% 0.00 in 0.0 W/m2
03:05 72.7 °F 15.1 °F 30.14 in East 6.9 mph 10.0 mph 11% 0.00 in 0.0 W/m2
03:10 72.7 °F 15.1 °F 30.15 in East 8.9 mph 11.0 mph 11% 0.00 in 0.0 W/m2
03:15 72.3 °F 14.9 °F 30.15 in SE 13.0 mph 14.0 mph 11% 0.00 in 0.0 W/m2
03:16 72.3 °F 14.9 °F 30.15 in South 4.9 mph 14.0 mph 11% 0.00 in 0.0 W/m2
03:21 72.3 °F 14.9 °F 30.15 in Calm   10.0 mph 11% 0.00 in 0.0 W/m2
03:26 72.1 °F 14.7 °F 30.14 in East 6.0 mph 11.0 mph 11% 0.00 in 0.0 W/m2
03:31 72.1 °F 14.7 °F 30.15 in South 2.0 mph 13.0 mph 11% 0.00 in 0.0 W/m2
03:52 72.0 °F 14.5 °F 30.15 in East 6.0 mph 15.0 mph 11% 0.00 in 0.0 W/m2
03:53 72.0 °F 14.5 °F 30.15 in ENE 4.0 mph 10.0 mph 11% 0.00 in 0.0 W/m2
03:58 72.0 °F 14.5 °F 30.15 in ESE 10.1 mph 15.0 mph 11% 0.00 in 0.0 W/m2
04:01 72.0 °F 14.5 °F 30.15 in East 8.1 mph 11.0 mph 11% 0.00 in 0.0 W/m2
04:06 72.0 °F 14.5 °F 30.15 in SE 8.1 mph 17.0 mph 11% 0.00 in 0.0 W/m2
04:11 72.0 °F 14.5 °F 30.15 in ESE 2.9 mph 11.0 mph 11% 0.00 in 0.0 W/m2
04:12 72.0 °F 14.5 °F 30.15 in Calm   12.0 mph 11% 0.00 in 0.0 W/m2
04:17 72.0 °F 14.5 °F 30.15 in ESE 8.1 mph 10.0 mph 11% 0.00 in 0.0 W/m2
04:22 71.8 °F 14.4 °F 30.15 in East 0.9 mph 10.0 mph 11% 0.00 in 0.0 W/m2
04:27 71.4 °F 14.2 °F 30.17 in East 4.0 mph 11.0 mph 11% 0.00 in 0.0 W/m2
04:29 71.4 °F 14.2 °F 30.17 in ESE 13.0 mph 13.0 mph 11% 0.00 in 0.0 W/m2
04:33 71.4 °F 14.2 °F 30.17 in East 4.9 mph 12.0 mph 11% 0.00 in 0.0 W/m2
04:38 71.4 °F 14.2 °F 30.17 in ESE 4.9 mph 7.0 mph 11% 0.00 in 0.0 W/m2
04:43 71.4 °F 14.2 °F 30.17 in SE 2.9 mph 12.0 mph 11% 0.00 in 0.0 W/m2
04:51 71.2 °F 14.0 °F 30.17 in East 10.1 mph 14.0 mph 11% 0.00 in 0.0 W/m2
04:57 71.2 °F 14.0 °F 30.17 in East 6.0 mph 13.0 mph 11% 0.00 in 0.0 W/m2
05:02 71.2 °F 14.0 °F 30.17 in East 6.0 mph 12.0 mph 11% 0.00 in 0.0 W/m2
05:08 71.4 °F 14.2 °F 30.17 in ESE 8.1 mph 16.0 mph 11% 0.00 in 0.0 W/m2
05:16 71.4 °F 14.2 °F 30.17 in ESE 14.1 mph 15.0 mph 11% 0.00 in 0.0 W/m2
05:21 71.4 °F 14.2 °F 30.17 in SSE 0.9 mph 11.0 mph 11% 0.00 in 0.0 W/m2
05:32 71.2 °F 14.0 °F 30.18 in East 2.9 mph 11.0 mph 11% 0.00 in 0.0 W/m2
05:37 71.2 °F 14.0 °F 30.18 in Calm   12.0 mph 11% 0.00 in 0.0 W/m2
05:42 71.1 °F 13.8 °F 30.19 in SE 4.0 mph 10.0 mph 11% 0.00 in 0.0 W/m2
05:47 71.1 °F 13.8 °F 30.19 in NNE 4.0 mph 4.0 mph 11% 0.00 in 0.0 W/m2
05:52 70.9 °F 13.8 °F 30.19 in ESE 0.9 mph 7.0 mph 11% 0.00 in 0.0 W/m2
05:57 70.3 °F 15.3 °F 30.19 in Calm   5.0 mph 12% 0.00 in 0.0 W/m2
05:59 70.2 °F 15.1 °F 30.19 in Calm   3.0 mph 12% 0.00 in 0.0 W/m2
06:05 69.6 °F 16.5 °F 30.20 in Calm   2.0 mph 13% 0.00 in 0.0 W/m2
06:12 68.9 °F 16.0 °F 30.20 in SSE 2.0 mph 4.0 mph 13% 0.00 in 0.0 W/m2
06:17 68.4 °F 15.6 °F 30.20 in ENE 2.0 mph 5.0 mph 13% 0.00 in 5.0 W/m2
06:19 68.4 °F 17.2 °F 30.20 in Calm   3.0 mph 14% 0.00 in 5.0 W/m2
06:24 68.0 °F 17.1 °F 30.20 in SE 2.0 mph 4.0 mph 14% 0.00 in 7.0 W/m2
06:29 67.8 °F 16.9 °F 30.20 in Calm   3.0 mph 14% 0.00 in 9.0 W/m2
06:34 67.8 °F 18.5 °F 30.20 in ENE 0.9 mph 4.0 mph 15% 0.00 in 11.0 W/m2
06:39 67.6 °F 18.3 °F 30.20 in SSE 2.9 mph 8.0 mph 15% 0.00 in 12.0 W/m2
06:44 67.8 °F 18.5 °F 30.20 in NNE 0.9 mph 4.0 mph 15% 0.00 in 14.0 W/m2
06:49 67.8 °F 19.9 °F 30.20 in ESE 2.9 mph 8.0 mph 16% 0.00 in 16.0 W/m2
06:54 68.0 °F 20.1 °F 30.21 in ESE 0.9 mph 9.0 mph 16% 0.00 in 16.0 W/m2
06:56 68.2 °F 18.7 °F 30.21 in ESE 0.9 mph 7.0 mph 15% 0.00 in 18.0 W/m2
07:02 68.4 °F 20.5 °F 30.21 in North 0.9 mph 7.0 mph 16% 0.00 in 18.0 W/m2
07:07 68.7 °F 19.2 °F 30.21 in SSE 4.0 mph 7.0 mph 15% 0.00 in 19.0 W/m2
07:08 68.7 °F 19.2 °F 30.21 in SE 4.0 mph 11.0 mph 15% 0.00 in 19.0 W/m2
07:13 69.3 °F 21.2 °F 30.21 in ENE 6.9 mph 11.0 mph 16% 0.00 in 21.0 W/m2
07:16 69.3 °F 21.2 °F 30.21 in NE 4.9 mph 8.0 mph 16% 0.00 in 21.0 W/m2
07:19 69.4 °F 19.8 °F 30.21 in East 4.9 mph 10.0 mph 15% 0.00 in 21.0 W/m2
07:24 69.6 °F 21.4 °F 30.21 in ENE 4.9 mph 10.0 mph 16% 0.00 in 23.0 W/m2
07:25 69.6 °F 21.4 °F 30.21 in East 0.9 mph 10.0 mph 16% 0.00 in 23.0 W/m2
07:30 69.8 °F 21.6 °F 30.22 in ESE 6.0 mph 9.0 mph 16% 0.00 in 25.0 W/m2
07:36 70.2 °F 21.9 °F 30.22 in ENE 4.0 mph 10.0 mph 16% 0.00 in 25.0 W/m2
07:42 70.3 °F 22.1 °F 30.22 in ENE 4.0 mph 6.0 mph 16% 0.00 in 26.0 W/m2
07:47 70.9 °F 22.5 °F 30.22 in ENE 6.0 mph 10.0 mph 16% 0.00 in 49.0 W/m2
07:52 71.1 °F 22.6 °F 30.22 in SE 0.9 mph 8.0 mph 16% 0.00 in 332.0 W/m2
07:57 71.8 °F 21.6 °F 30.22 in East 2.9 mph 12.0 mph 15% 0.00 in 387.0 W/m2
08:01 72.3 °F 20.5 °F 30.22 in NNE 4.0 mph 12.0 mph 14% 0.00 in 406.0 W/m2
08:07 73.0 °F 22.6 °F 30.22 in SSE 2.9 mph 11.0 mph 15% 0.00 in 429.0 W/m2
08:08 73.2 °F 22.8 °F 30.22 in ESE 4.0 mph 11.0 mph 15% 0.00 in 434.0 W/m2
08:13 73.8 °F 23.2 °F 30.22 in NNE 2.0 mph 8.0 mph 15% 0.00 in 454.0 W/m2
08:18 74.5 °F 22.1 °F 30.22 in Calm   6.0 mph 14% 0.00 in 475.0 W/m2
08:23 74.8 °F 22.5 °F 30.22 in ENE 6.0 mph 9.0 mph 14% 0.00 in 494.0 W/m2
08:28 75.4 °F 22.8 °F 30.22 in ENE 4.0 mph 10.0 mph 14% 0.00 in 515.0 W/m2
08:33 75.6 °F 21.2 °F 30.22 in ESE 2.9 mph 11.0 mph 13% 0.00 in 533.0 W/m2
08:38 75.9 °F 21.6 °F 30.22 in SSE 6.0 mph 10.0 mph 13% 0.00 in 552.0 W/m2
08:43 76.3 °F 21.7 °F 30.22 in East 2.0 mph 12.0 mph 13% 0.00 in 571.0 W/m2
08:48 76.8 °F 22.3 °F 30.22 in NNE 4.9 mph 11.0 mph 13% 0.00 in 591.0 W/m2
08:53 77.4 °F 22.6 °F 30.23 in East 2.0 mph 14.0 mph 13% 0.00 in 608.0 W/m2
08:59 77.7 °F 23.0 °F 30.23 in East 10.1 mph 10.1 mph 13% 0.00 in 631.0 W/m2
09:02 77.7 °F 21.0 °F 30.23 in NNE 2.9 mph 11.0 mph 12% 0.00 in 643.0 W/m2
09:07 78.3 °F 23.4 °F 30.23 in ENE 6.0 mph 8.0 mph 13% 0.00 in 657.0 W/m2
09:12 78.6 °F 21.7 °F 30.23 in ENE 6.0 mph 10.0 mph 12% 0.00 in 675.0 W/m2
09:17 78.6 °F 21.7 °F 30.23 in SE 0.9 mph 9.0 mph 12% 0.00 in 694.0 W/m2
09:23 79.2 °F 22.1 °F 30.22 in East 6.9 mph 15.0 mph 12% 0.00 in 712.0 W/m2
09:29 79.5 °F 22.5 °F 30.23 in ESE 2.9 mph 10.0 mph 12% 0.00 in 733.0 W/m2
09:30 79.7 °F 22.6 °F 30.23 in South 2.9 mph 10.0 mph 12% 0.00 in 738.0 W/m2
09:36 79.9 °F 22.8 °F 30.22 in East 2.9 mph 5.0 mph 12% 0.00 in 740.0 W/m2
09:41 80.8 °F 23.4 °F 30.23 in East 0.9 mph 8.0 mph 12% 0.00 in 775.0 W/m2
09:44 81.0 °F 25.5 °F 30.23 in ENE 8.9 mph 12.0 mph 13% 0.00 in 786.0 W/m2
09:49 81.7 °F 24.1 °F 30.22 in NE 2.9 mph 8.0 mph 12% 0.00 in 800.0 W/m2
09:54 81.9 °F 22.3 °F 30.22 in ENE 2.9 mph 9.0 mph 11% 0.00 in 816.0 W/m2
10:05 82.2 °F 22.5 °F 30.22 in East 4.0 mph 10.0 mph 11% 0.00 in 844.0 W/m2
10:10 82.6 °F 22.8 °F 30.22 in ENE 4.0 mph 10.0 mph 11% 0.00 in 861.0 W/m2
10:15 82.8 °F 20.7 °F 30.22 in SSE 4.9 mph 10.0 mph 10% 0.00 in 874.0 W/m2
10:20 82.6 °F 22.8 °F 30.22 in SE 4.0 mph 8.0 mph 11% 0.00 in 888.0 W/m2
10:25 82.6 °F 22.8 °F 30.22 in ESE 6.9 mph 9.0 mph 11% 0.00 in 902.0 W/m2
10:29 82.6 °F 18.0 °F 30.22 in ESE 2.9 mph 13.0 mph 9% 0.00 in 912.0 W/m2
10:34 82.8 °F 20.7 °F 30.22 in East 2.0 mph 10.0 mph 10% 0.00 in 926.0 W/m2
10:39 82.9 °F 20.8 °F 30.22 in Calm   6.0 mph 10% 0.00 in 937.0 W/m2
10:44 83.7 °F 21.4 °F 30.22 in East 6.9 mph 10.0 mph 10% 0.00 in 949.0 W/m2
10:49 83.8 °F 21.4 °F 30.22 in SE 8.9 mph 10.0 mph 10% 0.00 in 965.0 W/m2
10:55 84.0 °F 19.0 °F 30.22 in NNE 2.9 mph 8.0 mph 9% 0.00 in 974.0 W/m2
11:00 84.4 °F 21.9 °F 30.22 in ESE 6.9 mph 14.0 mph 10% 0.00 in 981.0 W/m2
11:15 85.3 °F 22.6 °F 30.22 in NE 8.1 mph 10.0 mph 10% 0.00 in 1009.0 W/m2
11:20 85.5 °F 20.1 °F 30.22 in East 2.9 mph 11.0 mph 9% 0.00 in 1020.0 W/m2
11:30 86.4 °F 20.8 °F 30.22 in ESE 6.0 mph 13.0 mph 9% 0.00 in 1035.0 W/m2
11:37 86.4 °F 20.8 °F 30.21 in East 0.9 mph 8.0 mph 9% 0.00 in 1046.0 W/m2
11:42 86.7 °F 21.2 °F 30.21 in NNE 2.0 mph 9.0 mph 9% 0.00 in 1049.0 W/m2
11:47 87.1 °F 21.4 °F 30.21 in ESE 2.0 mph 10.0 mph 9% 0.00 in 1055.0 W/m2
11:52 86.9 °F 21.2 °F 30.21 in NE 0.9 mph 9.0 mph 9% 0.00 in 1062.0 W/m2
12:02 87.6 °F 21.7 °F 30.21 in ENE 2.0 mph 7.0 mph 9% 0.00 in 1071.0 W/m2
12:07 88.0 °F 19.4 °F 30.20 in North 0.9 mph 2.0 mph 8% 0.00 in 1078.0 W/m2
12:08 88.0 °F 24.6 °F 30.20 in SE 2.0 mph 2.0 mph 10% 0.00 in 1078.0 W/m2
12:14 88.3 °F 22.3 °F 30.20 in Calm   6.0 mph 9% 0.00 in 1085.0 W/m2
12:19 88.9 °F 25.3 °F 30.20 in South 2.9 mph 4.0 mph 10% 0.00 in 1085.0 W/m2
12:25 89.1 °F 20.1 °F 30.20 in SE 4.9 mph 8.0 mph 8% 0.00 in 1088.0 W/m2
12:30 89.1 °F 22.8 °F 30.20 in SSE 2.9 mph 11.0 mph 9% 0.00 in 1090.0 W/m2
12:35 89.1 °F 22.8 °F 30.20 in ESE 4.0 mph 9.0 mph 9% 0.00 in 1090.0 W/m2
12:41 89.1 °F 20.1 °F 30.20 in NNE 4.9 mph 7.0 mph 8% 0.00 in 1093.0 W/m2
12:46 89.4 °F 23.2 °F 30.20 in SE 2.0 mph 8.0 mph 9% 0.00 in 1093.0 W/m2
12:51 89.8 °F 20.7 °F 30.19 in Calm   7.0 mph 8% 0.00 in 1083.0 W/m2
12:56 90.0 °F 23.5 °F 30.19 in SE 2.0 mph 3.0 mph 9% 0.00 in 1078.0 W/m2
13:01 90.1 °F 20.8 °F 30.19 in South 4.9 mph 7.0 mph 8% 0.00 in 1081.0 W/m2
13:11 90.0 °F 20.8 °F 30.19 in ESE 2.9 mph 6.0 mph 8% 0.00 in 1081.0 W/m2
13:13 90.0 °F 20.8 °F 30.19 in East 4.0 mph 5.0 mph 8% 0.00 in 1081.0 W/m2
13:19 90.3 °F 21.0 °F 30.19 in South 4.9 mph 12.0 mph 8% 0.00 in 1072.0 W/m2
13:24 90.3 °F 23.9 °F 30.18 in SE 4.9 mph 10.0 mph 9% 0.00 in 1079.0 W/m2
13:30 90.7 °F 24.1 °F 30.18 in ESE 2.0 mph 7.0 mph 9% 0.00 in 1078.0 W/m2
13:38 90.7 °F 21.4 °F 30.18 in NE 0.9 mph 1.0 mph 8% 0.00 in 1069.0 W/m2
13:44 90.9 °F 21.4 °F 30.18 in Calm   2.0 mph 8% 0.00 in 1065.0 W/m2
13:49 91.2 °F 24.4 °F 30.17 in SSE 6.9 mph 12.0 mph 9% 0.00 in 1060.0 W/m2
13:54 91.6 °F 21.9 °F 30.17 in SE 6.0 mph 10.0 mph 8% 0.00 in 1056.0 W/m2
14:00 91.8 °F 22.1 °F 30.17 in SSE 2.0 mph 7.0 mph 8% 0.00 in 1051.0 W/m2
14:05 91.9 °F 22.3 °F 30.17 in SE 4.9 mph 10.0 mph 8% 0.00 in 1046.0 W/m2
14:10 91.9 °F 22.3 °F 30.16 in Calm   4.0 mph 8% 0.00 in 1037.0 W/m2
14:15 91.8 °F 22.1 °F 30.16 in Calm   7.0 mph 8% 0.00 in 1030.0 W/m2
14:21 92.3 °F 22.5 °F 30.16 in SE 2.0 mph 11.0 mph 8% 0.00 in 1020.0 W/m2
14:26 92.1 °F 19.2 °F 30.15 in WNW 2.0 mph 7.0 mph 7% 0.00 in 1011.0 W/m2
14:31 91.8 °F 22.1 °F 30.15 in South 4.0 mph 13.0 mph 8% 0.00 in 1004.0 W/m2
14:37 91.9 °F 22.3 °F 30.15 in ESE 0.9 mph 7.0 mph 8% 0.00 in 993.0 W/m2
14:48 92.7 °F 19.6 °F 30.15 in SSE 6.0 mph 12.0 mph 7% 0.00 in 970.0 W/m2
14:58 91.8 °F 19.0 °F 30.14 in Calm   5.0 mph 7% 0.00 in 949.0 W/m2
15:03 92.5 °F 19.6 °F 30.14 in Calm   3.0 mph 7% 0.00 in 942.0 W/m2
15:04 92.7 °F 19.6 °F 30.14 in SW 2.9 mph 9.0 mph 7% 0.00 in 935.0 W/m2
15:09 93.0 °F 19.9 °F 30.14 in SSW 4.0 mph 6.0 mph 7% 0.00 in 926.0 W/m2
15:14 92.8 °F 19.8 °F 30.14 in ESE 0.9 mph 4.0 mph 7% 0.00 in 911.0 W/m2
15:19 93.4 °F 20.1 °F 30.13 in Calm   10.0 mph 7% 0.00 in 900.0 W/m2
15:25 93.7 °F 16.9 °F 30.13 in ESE 0.9 mph 5.0 mph 6% 0.00 in 884.0 W/m2
15:30 93.9 °F 20.5 °F 30.13 in South 6.0 mph 7.0 mph 7% 0.00 in 868.0 W/m2
15:35 93.9 °F 16.9 °F 30.13 in South 4.0 mph 7.0 mph 6% 0.00 in 854.0 W/m2
15:40 92.8 °F 16.2 °F 30.13 in WNW 0.9 mph 6.0 mph 6% 0.00 in 842.0 W/m2
15:45 92.8 °F 16.2 °F 30.12 in Calm   2.0 mph 6% 0.00 in 828.0 W/m2
15:50 93.0 °F 16.3 °F 30.12 in ESE 0.9 mph 5.0 mph 6% 0.00 in 816.0 W/m2
15:55 92.8 °F 16.2 °F 30.12 in SW 2.0 mph 7.0 mph 6% 0.00 in 800.0 W/m2
15:58 93.0 °F 16.3 °F 30.12 in ESE 8.1 mph 8.1 mph 6% 0.00 in 789.0 W/m2
16:01 93.2 °F 16.5 °F 30.12 in SE 4.0 mph 8.0 mph 6% 0.00 in 782.0 W/m2
16:06 93.7 °F 20.5 °F 30.12 in SSW 0.9 mph 6.0 mph 7% 0.00 in 763.0 W/m2
16:11 94.1 °F 17.1 °F 30.12 in SSE 2.9 mph 7.0 mph 6% 0.00 in 747.0 W/m2
16:22 94.6 °F 17.4 °F 30.11 in Calm   2.0 mph 6% 0.00 in 714.0 W/m2
16:27 94.8 °F 13.5 °F 30.12 in SE 2.0 mph 9.0 mph 5% 0.00 in 693.0 W/m2
16:32 94.5 °F 13.1 °F 30.11 in Calm   2.0 mph 5% 0.00 in 675.0 W/m2
16:35 94.3 °F 17.2 °F 30.11 in ESE 2.9 mph 8.0 mph 6% 0.00 in 671.0 W/m2
16:40 93.6 °F 16.7 °F 30.11 in WSW 4.0 mph 5.0 mph 6% 0.00 in 649.0 W/m2
16:45 93.6 °F 20.3 °F 30.11 in Calm   1.0 mph 7% 0.00 in 631.0 W/m2
16:51 93.4 °F 16.5 °F 30.11 in East 2.9 mph 8.0 mph 6% 0.00 in 612.0 W/m2
16:56 93.4 °F 16.5 °F 30.11 in East 2.9 mph 7.0 mph 6% 0.00 in 591.0 W/m2
17:03 93.7 °F 12.7 °F 30.11 in SSE 6.9 mph 10.0 mph 5% 0.00 in 570.0 W/m2
17:08 93.9 °F 12.7 °F 30.11 in ESE 2.0 mph 9.0 mph 5% 0.00 in 550.0 W/m2
17:14 93.7 °F 12.7 °F 30.11 in SSW 2.0 mph 4.0 mph 5% 0.00 in 527.0 W/m2
17:19 93.7 °F 12.7 °F 30.11 in Calm   2.0 mph 5% 0.00 in 508.0 W/m2
17:21 93.9 °F 12.7 °F 30.11 in Calm   7.0 mph 5% 0.00 in 499.0 W/m2
17:26 94.3 °F 13.1 °F 30.11 in SW 4.0 mph 8.0 mph 5% 0.00 in 482.0 W/m2
17:31 94.1 °F 12.9 °F 30.10 in SSE 6.9 mph 10.0 mph 5% 0.00 in 462.0 W/m2
17:36 93.9 °F 12.7 °F 30.10 in SSW 4.0 mph 4.0 mph 5% 0.00 in 441.0 W/m2
17:46 93.9 °F 12.7 °F 30.11 in SSE 8.1 mph 8.1 mph 5% 0.00 in 403.0 W/m2
17:49 93.7 °F 12.7 °F 30.11 in SSW 2.0 mph 4.0 mph 5% 0.00 in 392.0 W/m2
17:55 93.6 °F 12.6 °F 30.11 in SSE 4.9 mph 5.0 mph 5% 0.00 in 367.0 W/m2
18:00 93.6 °F 12.6 °F 30.11 in WSW 0.9 mph 3.0 mph 5% 0.00 in 346.0 W/m2
18:06 93.6 °F 12.6 °F 30.11 in SE 6.0 mph 11.0 mph 5% 0.00 in 323.0 W/m2
18:11 93.4 °F 12.4 °F 30.11 in ENE 2.0 mph 8.0 mph 5% 0.00 in 302.0 W/m2
18:16 93.6 °F 12.6 °F 30.11 in South 2.9 mph 3.0 mph 5% 0.00 in 281.0 W/m2
18:21 93.6 °F 12.6 °F 30.11 in ESE 4.9 mph 6.0 mph 5% 0.00 in 260.0 W/m2
18:26 93.0 °F 12.2 °F 30.11 in ENE 0.9 mph 7.0 mph 5% 0.00 in 239.0 W/m2
18:31 92.7 °F 11.8 °F 30.11 in SE 2.9 mph 3.0 mph 5% 0.00 in 218.0 W/m2
18:32 92.7 °F 11.8 °F 30.11 in SE 4.9 mph 7.0 mph 5% 0.00 in 216.0 W/m2
18:37 92.3 °F 11.7 °F 30.11 in SE 6.9 mph 8.0 mph 5% 0.00 in 195.0 W/m2
18:47 91.4 °F 10.9 °F 30.12 in WSW 4.0 mph 4.0 mph 5% 0.00 in 30.0 W/m2
18:53 90.5 °F 10.4 °F 30.12 in SE 0.9 mph 1.0 mph 5% 0.00 in 26.0 W/m2
19:04 89.6 °F 13.8 °F 30.12 in SE 2.0 mph 4.0 mph 6% 0.00 in 21.0 W/m2
19:09 89.1 °F 9.3 °F 30.12 in SSE 2.0 mph 5.0 mph 5% 0.00 in 19.0 W/m2
19:17 88.5 °F 9.0 °F 30.13 in East 2.9 mph 4.0 mph 5% 0.00 in 14.0 W/m2
19:27 87.6 °F 12.4 °F 30.13 in East 0.9 mph 3.0 mph 6% 0.00 in 9.0 W/m2
19:32 86.9 °F 11.8 °F 30.13 in ESE 4.0 mph 7.0 mph 6% 0.00 in 7.0 W/m2
19:37 86.4 °F 11.5 °F 30.14 in East 6.0 mph 10.0 mph 6% 0.00 in 5.0 W/m2
19:42 85.8 °F 7.2 °F 30.14 in SE 4.9 mph 5.0 mph 5% 0.00 in 0.0 W/m2
19:49 85.3 °F 6.8 °F 30.14 in ESE 0.9 mph 7.0 mph 5% 0.00 in 0.0 W/m2
19:54 84.7 °F 6.3 °F 30.14 in ESE 2.0 mph 7.0 mph 5% 0.00 in 0.0 W/m2
19:59 84.6 °F 6.3 °F 30.14 in SSE 6.9 mph 7.0 mph 5% 0.00 in 0.0 W/m2
20:05 84.0 °F 9.9 °F 30.15 in ESE 4.0 mph 7.0 mph 6% 0.00 in 0.0 W/m2
20:14 83.3 °F 5.4 °F 30.15 in ESE 2.9 mph 7.0 mph 5% 0.00 in 0.0 W/m2
20:19 82.9 °F 5.0 °F 30.15 in SE 2.0 mph 5.0 mph 5% 0.00 in 0.0 W/m2
20:25 82.8 °F 5.0 °F 30.15 in SE 2.9 mph 6.0 mph 5% 0.00 in 0.0 W/m2
20:32 82.2 °F 4.6 °F 30.15 in SE 4.9 mph 7.0 mph 5% 0.00 in 0.0 W/m2
20:34 82.2 °F 4.6 °F 30.15 in SE 4.9 mph 6.0 mph 5% 0.00 in 0.0 W/m2
20:46 81.5 °F 8.1 °F 30.15 in SE 4.0 mph 8.0 mph 6% 0.00 in 0.0 W/m2
20:51 81.3 °F 7.9 °F 30.16 in SE 2.0 mph 5.0 mph 6% 0.00 in 0.0 W/m2
20:54 81.1 °F 7.9 °F 30.16 in SE 2.9 mph 6.0 mph 6% 0.00 in 0.0 W/m2
21:01 81.0 °F 7.7 °F 30.16 in SE 4.0 mph 8.0 mph 6% 0.00 in 0.0 W/m2
21:06 80.8 °F 7.5 °F 30.16 in SSE 4.0 mph 6.0 mph 6% 0.00 in 0.0 W/m2
21:11 80.8 °F 7.5 °F 30.16 in ESE 6.0 mph 7.0 mph 6% 0.00 in 0.0 W/m2
21:16 80.6 °F 7.3 °F 30.16 in SE 4.9 mph 9.0 mph 6% 0.00 in 0.0 W/m2
21:21 80.4 °F 7.3 °F 30.17 in ESE 4.0 mph 9.0 mph 6% 0.00 in 0.0 W/m2
21:26 80.4 °F 7.3 °F 30.17 in ESE 4.0 mph 8.0 mph 6% 0.00 in 0.0 W/m2
21:31 80.4 °F 7.3 °F 30.17 in SE 4.9 mph 8.0 mph 6% 0.00 in 0.0 W/m2
21:36 80.4 °F 7.3 °F 30.17 in SE 4.0 mph 9.0 mph 6% 0.00 in 0.0 W/m2
21:37 80.4 °F 7.3 °F 30.17 in SE 4.9 mph 9.0 mph 6% 0.00 in 0.0 W/m2
21:42 80.2 °F 7.2 °F 30.17 in ESE 2.0 mph 9.0 mph 6% 0.00 in 0.0 W/m2
21:47 80.2 °F 7.2 °F 30.17 in SE 4.9 mph 10.0 mph 6% 0.00 in 0.0 W/m2
21:52 80.2 °F 7.2 °F 30.18 in SE 6.0 mph 10.0 mph 6% 0.00 in 0.0 W/m2
21:54 80.2 °F 7.2 °F 30.18 in East 4.0 mph 10.0 mph 6% 0.00 in 0.0 W/m2
22:05 80.1 °F 7.0 °F 30.18 in ESE 10.1 mph 10.1 mph 6% 0.00 in 0.0 W/m2
22:10 80.1 °F 7.0 °F 30.18 in SSE 2.0 mph 10.0 mph 6% 0.00 in 0.0 W/m2
22:18 80.1 °F 7.0 °F 30.18 in SE 6.0 mph 7.0 mph 6% 0.00 in 0.0 W/m2
22:23 79.9 °F 6.8 °F 30.19 in ESE 2.9 mph 8.0 mph 6% 0.00 in 0.0 W/m2
22:25 79.9 °F 6.8 °F 30.19 in SE 6.0 mph 10.0 mph 6% 0.00 in 0.0 W/m2
22:30 79.7 °F 6.8 °F 30.19 in SE 6.0 mph 11.0 mph 6% 0.00 in 0.0 W/m2
22:35 79.5 °F 6.6 °F 30.19 in SE 0.9 mph 8.0 mph 6% 0.00 in 0.0 W/m2
22:45 79.3 °F 9.9 °F 30.19 in SE 4.9 mph 12.0 mph 7% 0.00 in 0.0 W/m2
22:49 79.3 °F 9.9 °F 30.19 in ESE 4.9 mph 10.0 mph 7% 0.00 in 0.0 W/m2
22:54 79.3 °F 12.9 °F 30.19 in SE 6.0 mph 7.0 mph 8% 0.00 in 0.0 W/m2
23:01 79.3 °F 12.9 °F 30.20 in SE 6.9 mph 7.0 mph 8% 0.00 in 0.0 W/m2
23:12 79.3 °F 12.9 °F 30.20 in ESE 2.9 mph 8.0 mph 8% 0.00 in 0.0 W/m2
23:17 79.3 °F 12.9 °F 30.20 in ESE 6.9 mph 11.0 mph 8% 0.00 in 0.0 W/m2
23:32 79.3 °F 12.9 °F 30.20 in ESE 8.1 mph 10.0 mph 8% 0.00 in 0.0 W/m2
23:33 79.3 °F 12.9 °F 30.20 in SE 6.0 mph 9.0 mph 8% 0.00 in 0.0 W/m2
23:38 79.5 °F 13.1 °F 30.20 in SE 6.9 mph 7.0 mph 8% 0.00 in 0.0 W/m2
23:43 79.5 °F 13.1 °F 30.20 in SE 4.9 mph 10.0 mph 8% 0.00 in 0.0 W/m2
23:49 79.3 °F 12.9 °F 30.20 in SE 6.0 mph 9.0 mph 8% 0.00 in 0.0 W/m2
23:54 79.3 °F 12.9 °F 30.20 in SSE 2.9 mph 10.0 mph 8% 0.00 in 0.0 W/m2
23:59 79.3 °F 12.9 °F 30.20 in SE 6.0 mph 8.0 mph 8% 0.00 in 0.0 W/m2
Olympia, Windhoek, Namibia
Compliments of Weather Underground - 3.25 mb